Regional Weather Roundup
Issued by NWS

Home | Current Version | Previous Version | Text Only | Print | Product List | Glossary Off
Versions: 1 2 3 4 5 6 7 8 9 10 11 12 13 14 15 16 17 18 19 20 21 22 23 24 25 26 27 28 29 30 31 32 33 34 35 36 37 38 39 40 41 42 43 44 45 46 47 48 49 50

000
ASUS43 KMPX 211301
RWRMN
WEATHER ROUNDUP FOR MINNESOTA
NATIONAL WEATHER SERVICE TWIN CITIES/CHANHASSEN MN
700 AM CST SUN DEC 21 2014


NOTE: "FAIR" INDICATES FEW OR NO CLOUDS BELOW 12,000 FEET WITH NO
SIGNIFICANT WEATHER AND/OR OBSTRUCTIONS TO VISIBILITY. N/A MEANS
CURRENT SKY AND/OR WEATHER CONDITIONS ARE NOT AVAILABLE.

MNZ060>063-068>070-211400-
   Twin Cities Metro

CITY           SKY/WX    TMP DP  RH WIND       PRES   REMARKS
TWIN CITIES    CLOUDY    33  31  92 SE15      29.91F FOG     WCI  23
ST PAUL        CLOUDY    33  31  92 SE13      29.93F FOG     WCI  24
CRYSTAL        CLOUDY    34  31  88 SE13      29.89F FOG     WCI  25
BLAINE         CLOUDY    34  34 100 SE12      29.90F FOG     WCI  25
LAKEVILLE      CLOUDY    32  30  93 SE9       29.91F FOG     WCI  24
EDEN PRAIRIE   CLOUDY    33  31  92 SE14      29.89F FOG     WCI  23
SOUTH ST PAUL  CLOUDY    33  32  96 SE9       29.92F FOG     WCI  25
LAKE ELMO      CLOUDY    32  32 100 S10       29.93F FOG     WCI  24
$$
MNZ001>005-007-008-013>017-022>024-027-028-211400-
   Northwest Minnesota

CITY           SKY/WX    TMP DP  RH WIND       PRES   REMARKS
BEMIDJI        CLOUDY    29  28  97 S9        29.78F FOG     WCI  20
HALLOCK        LGT SNOW  30  30 100 CALM      29.70S
ROSEAU         CLOUDY    30  27  86 S14       29.73F FOG     WCI  20
WARROAD        LGT SNOW  30  27  86 S7        29.75F WCI  23
THIEF RVR FALL CLOUDY    30  28  93 S15       29.74F WCI  19
CROOKSTON      CLOUDY    30  30 100 S18       29.75F FOG     WCI  18
FOSSTON        CLOUDY    28  27  93 S14       29.77S FOG     WCI  17
DETROIT LAKES  CLOUDY    30  30 100 S17       29.78F FOG     WCI  18
MOORHEAD       CLOUDY    30  30 100 S14       29.78S FOG     WCI  20
PARK RAPIDS    CLOUDY    30  28  92 S14       29.79F FOG     WCI  19
MAHNOMEN       CLOUDY    29  28  96 S14       29.77S WCI  19
$$
MNZ006-009>011-018-025>026-211400-
   North Central Minnesota

CITY           SKY/WX    TMP DP  RH WIND       PRES   REMARKS
BAUDETTE       CLOUDY    29  26  89 S8        29.77F FOG     WCI  21
FLAG ISLAND    CLOUDY    28  27  93 SE18      29.74F FOG     WCI  16
INTL FALLS     CLOUDY    29  26  89 VRB5      29.83S FOG     WCI  24
WASKISH        CLOUDY    28  28 100 CALM      29.79F FOG
BIG FORK       CLOUDY    28  27  93 S12       29.83R FOG     WCI  18
LONGVILLE      CLOUDY    28  28 100 S13G18    29.82F FOG     WCI  18
GRAND RAPIDS   CLOUDY    28  27  93 S16       29.83F WCI  17
CRANE LAKE     CLOUDY    28  27  93 S5G16     29.88F FOG     WCI  23
ORR            LGT SNOW  28  25  86 SE9G16    29.82F WCI  20
COOK           CLOUDY    28  27  93 S7        29.86F WCI  21
WALKER         CLOUDY    28  28  96 S9        29.81S FOG     WCI  20
$$
MNZ012-019>021-037-211400-
   Northeast Minnesota

CITY           SKY/WX    TMP DP  RH WIND       PRES   REMARKS
DULUTH         FRZ DRZL  30  27  88 SE7       29.90F WCI  23
ELY            CLOUDY    28  27  93 S7G17     29.90S WCI  21
HIBBING        CLOUDY    30  26  85 S9        29.86F WCI  22
EVELETH        CLOUDY    30  30 100 S10       29.88F FOG     WCI  21
DULUTH HARBOR  CLOUDY    34  28  80 CALM      29.95F
TWO HARBORS    CLOUDY    34  28  80 S6        29.92F WCI  29
SILVER BAY     CLOUDY    32  28  86 S8        29.93F WCI  25
GRAND MARAIS     N/A     34  28  79 S15       29.99F WCI  24
G MARAIS ARPRT CLOUDY    27  23  86 S9        29.93F FOG     WCI  17
$$
MNZ029>031-032-039>041-046>048-054>057-064-211400-
   West Central Minnesota

CITY           SKY/WX    TMP DP  RH WIND       PRES   REMARKS
FERGUS FALLS   CLOUDY    30  28  93 S14       29.82S FOG     WCI  20
WHEATON        CLOUDY    28  27  93 S7        29.81F FOG     WCI  21
MORRIS         CLOUDY    30  30 100 S13       29.80S FOG     WCI  20
ALEXANDRIA     CLOUDY    30  29  96 S10       29.82S FOG     WCI  21
ELBOW LAKE     CLOUDY    30  29  99 S13       29.80F FOG     WCI  20
WADENA         CLOUDY    28  28 100 S15       29.80F FOG     WCI  17
GLENWOOD       CLOUDY    30  28  93 S16       29.82S FOG     WCI  19
APPLETON       CLOUDY    34  30  86 S8        29.82S FOG     WCI  27
BENSON         CLOUDY    32  28  86 S9        29.82S FOG     WCI  24
ORTONVILLE     CLOUDY    30  28  93 S7        29.80S FOG     WCI  23
MADISON        CLOUDY    36  34  93 S7        29.81S FOG
WILLMAR        CLOUDY    32  30  93 S3        29.85S FOG
$$
MNZ033>034-036-042>043-049>051-058-059-211400-
   Central Minnesota

CITY           SKY/WX    TMP DP  RH WIND       PRES   REMARKS
ST CLOUD       CLOUDY    34  30  85 S12       29.86F FOG     WCI  25
SAUK CENTRE    CLOUDY    30  30  98 S10       29.83S FOG     WCI  21
PAYNESVILLE    CLOUDY    29  29 100 SE8       29.85F FOG     WCI  21
AITKIN         CLOUDY    32  27  80 SE7       29.85F HAZE    WCI  26
PINE RIVER     CLOUDY    28  28 100 S12       29.86F FOG     WCI  18
BRAINERD       CLOUDY    30  29  96 S14       29.85F FOG     WCI  19
STAPLES        CLOUDY    28  28 100 S9        29.82F FOG     WCI  20
LONG PRAIRIE   CLOUDY    30  30 100 SE12      29.83S FOG     WCI  21
LITTLE FALLS   CLOUDY    32  30  93 SE9       29.86F FOG     WCI  24
LITCHFIELD     CLOUDY    34  34 100 CALM      29.86F FOG
BUFFALO        CLOUDY    32  31  96 SE7       29.89F FOG     WCI  26
MAPLE LAKE     CLOUDY    33  32  96 SE8       29.87F FOG     WCI  26
$$
MNZ037-044-045-052-053-211400-
   East Central Minnesota

CITY           SKY/WX    TMP DP  RH WIND       PRES   REMARKS
PRINCETON      CLOUDY    34  30  86 SE7       29.89F FOG     WCI  28
MORA           CLOUDY    32  28  86 S7        29.91F WCI  26
CAMBRIDGE      CLOUDY    34  27  75 SE5       29.88F HAZE    WCI  30
RUSH CITY      CLOUDY    32  30  92 SE9       29.91F WCI  24
MOOSE LAKE     CLOUDY    32  28  86 S5        29.89S WCI  27
HINCKLEY       CLOUDY    32  32 100 S13       29.91F WCI  22
CLOQUET        CLOUDY    30  27  86 S9        29.90F WCI  22
MCGREGOR       CLOUDY    32  30  93 S10       29.88F WCI  24
$$
MNZ071>073-080-081-089-090-097-098-211400-
   Southwest Minnesota

CITY           SKY/WX    TMP DP  RH WIND       PRES   REMARKS
MONTEVIDEO     CLOUDY    32  32 100 SW6       29.83F FOG     WCI  26
GRANITE FALLS  CLOUDY    32  31  96 SE7       29.85S FOG     WCI  25
CANBY          CLOUDY    32  31  96 S5        29.81F FOG     WCI  27
MARSHALL       CLOUDY    32  28  86 S7        29.83S WCI  26
REDWOOD FALLS  FOG       32  31  96 S7        29.85S VSB 3/4 WCI  26
OLIVIA         CLOUDY    32  32 100 S8        29.84F FOG     WCI  25
PIPESTONE      FOG       30  30 100 CALM      29.79F VSB 1/4
WINDOM         FOG       34  34 100 S9        29.83S VSB 3/4 WCI  26
WORTHINGTON    CLOUDY    32  30  93 S10       29.81F VSB 3/4 WCI  24
JACKSON        MIX PCPN  34  32  93 S14       29.84S VSB 1/2 WCI  24
TRACY          CLOUDY    32  32  99 S6        29.83S FOG     WCI  27
SLAYTON        LGT SNOW  32  32 100 S3        29.81S
$$
MNZ065>067-074>077-082>085-091>093-211400-
   South Central Minnesota

CITY           SKY/WX    TMP DP  RH WIND       PRES   REMARKS
MANKATO        CLOUDY    34  30  86 S12       29.88F VSB 3/4 WCI  25
NEW ULM        FOG       32  32 100 S15       29.85F VSB 1/4 WCI  22
ST JAMES       FOG       34  34 100 SE12      29.87S VSB 1/2 WCI  25
FAIRMONT       CLOUDY    34  30  86 S13       29.86S VSB 1/2 WCI  25
GLENCOE        FOG       34  34 100 SE8       29.87F VSB 1   WCI  27
FARIBAULT      CLOUDY    34  34 100 S8        29.91F FOG     WCI  27
OWATONNA       CLOUDY    34  32  93 S12G17    29.91F FOG     WCI  25
WASECA         CLOUDY    32  32 100 SE10      29.91F FOG     WCI  24
ALBERT LEA     FOG       34  34 100 S15       29.89F VSB<1/4 WCI  24
$$
MNZ078>079-086>088-094>096-211400-
   Southeast Minnesota

CITY           SKY/WX    TMP DP  RH WIND       PRES   REMARKS
ROCHESTER      FOG       32  32 100 S15       29.95F VSB 1/2 WCI  22
RED WING       CLOUDY    34  30  86 SE8       29.95F FOG     WCI  27
STANTON        CLOUDY    35  32  90 S9        29.92S FOG     WCI  27
DODGE CENTER   FOG       34  34 100 S21G26    29.91F VSB 1/2 WCI  22
WINONA         CLOUDY    34  32  93 SE7       30.02S FOG     WCI  28
AUSTIN         MIX PCPN  34  32  93 S8        29.93F VSB 1/2 WCI  27
PRESTON        FOG       32  32  99 S12G17    29.97F VSB 1/4 WCI  23
$$
ABBREVIATIONS USED IN REMARKS
   TC - TEMPERATURES IN CELSIUS
  WCI - WIND CHILL INDEX
   HX - HEAT INDEX
  VSB - VISIBILITY
$$


USA.gov is the U.S. government's official web portal to all federal, state and local government web resources and services.